Overview Statistics Trail Chart Weather Telemetry Raw packets
 

This is the latest recevied weather packets stored in our database for station/object KD4EG. If no packets are shown the sender has not sent any weather packets the latest 10 day(s).

<< 36 37 38 39 40 41 42 >>
Time Temp. Humidity Pressure Rain* Wind** Luminosity Snow
1788402722 27.22° C 77% 1020.8 hPa 0 mm - 0 W/m² -
1788402422 27.22° C 78% 1020.5 hPa 0 mm - 0 W/m² -
1788402121 27.78° C 77% 1020.5 hPa 0 mm - 0 W/m² -
1788401821 27.78° C 76% 1020.5 hPa 0 mm - 0 W/m² -
1788401516 27.78° C 77% 1020.5 hPa 0 mm - 0 W/m² -
1788401211 28.33° C 76% 1020.6 hPa 0 mm - 0 W/m² -
1788400911 28.33° C 75% 1020.6 hPa 0 mm - 0 W/m² -
1788400606 28.33° C 74% 1020.5 hPa 0 mm - 0 W/m² -
1788400302 28.33° C 74% 1020.4 hPa 0 mm - 0 W/m² -
1788399996 28.33° C 74% 1020.4 hPa 0 mm - 0 W/m² -
1788399696 28.89° C 74% 1020.5 hPa 0 mm - 0 W/m² -
1788399391 28.89° C 73% 1020.4 hPa 0 mm - 0 W/m² -
1788399091 28.89° C 72% 1020.3 hPa 0 mm - 0 W/m² -
1788398790 28.89° C 72% 1020.4 hPa 0 mm - 0 W/m² -
1788398489 28.89° C 71% 1020.6 hPa 0 mm - 0 W/m² -
1788398188 28.89° C 71% 1020.3 hPa 0 mm - 0 W/m² -
1788397883 28.89° C 72% 1020.3 hPa 0 mm - 0 W/m² -
1788397579 29.44° C 72% 1020.4 hPa 0 mm - 0 W/m² -
1788397277 29.44° C 72% 1020.5 hPa 0 mm - 0 W/m² -
1788396972 30° C 71% 1020.4 hPa 0 mm - 0 W/m² -
1788396668 30° C 70% 1020.5 hPa 0 mm - 0 W/m² -
1788396368 30.56° C 69% 1020.6 hPa 0 mm - 0 W/m² -
1788396063 30.56° C 69% 1020.5 hPa 0 mm - 0 W/m² -
1788395758 30° C 69% 1020.5 hPa 0 mm - 0 W/m² -
1788395453 30.56° C 69% 1020.3 hPa 0 mm - 0 W/m² -

* Rain latest hour (hover to see other rain measurements)
** Current wind speed in m/s (hover to see current wind gust speed)